Simultaneous Nadir Overpasses (SNOs) Predictions

Prediction of SNOs between GOES-16 and NOAA-19 Satellite Orbit:

Table of predicted SNOs for the next 14.0 days since TLE Epoch: 6/8/2017
Index Date Time (GOES-16) GOES-16 Lat,Lon NOAA-19 Lat,Lon Distance(km) Time Diff (sec)
1 06/10/2017 21:23:26 0.00, -89.46 -0.55, -91.90 277.94 80
2 06/11/2017 21:14:38 0.01, -89.47 0.08, -89.11 40.83 80
3 06/12/2017 21:03:12 0.01, -89.47 0.76, -86.33 359.61 80
4 06/15/2017 09:24:47 -0.02, -89.51 0.42, -91.47 222.81 80
5 06/16/2017 09:10:40 -0.02, -89.52 -0.21, -88.67 96.28 80
6 06/17/2017 08:59:13 -0.02, -89.53 -0.84, -85.88 415.48 80
7 06/18/2017 21:32:14 0.02, -89.51 -0.97, -93.81 490.26 80
8 06/19/2017 21:20:46 0.02, -89.52 -0.33, -91.02 171.03 80
9 06/20/2017 21:11:59 0.02, -89.53 0.30, -88.22 148.24 80
10 06/21/2017 21:00:32 0.02, -89.54 1.00, -85.45 467.49 80




NCC Satellite Simultaneous Nadir Overpasses (SNOs) Prediction Service
